Location: Ebendorf
(52.1827°N, 11.5706°E)
Time: 12:22:06
(UTC+00:00)

Cosmos 1954 Rocket - Pass Details

Date: 15 May 2021
Orbit: 751 x 782 km, 74.0° (Epoch: 20 June)

Event Time Altitude Azimuth Distance (km) Brightness Sun altitude
Rises 01:25:39 0° 334° (NNW) 3,249 7.7 -13.1°
Reaches altitude 10° 01:28:01 10° 336° (NNW) 2,323 6.9 -12.9°
Maximum altitude 01:33:19 81° 64° (ENE) 790 4.1 -12.4°
Drops below altitude 10° 01:38:37 10° 152° (SSE) 2,325 6.2 -11.9°
Sets 01:41:00 0° 154° (SSE) 3,252 7.0 -11.7°
